SCP
0 0 0 0 0 0 0 0 0 0 0 0 0 0 0 0 0 0 0 0 0 0 0 0 0 0 0 0 0 0 0 0 0 0 0 0 0 0 0 0 0 0 0
0 0 0 0 0 0 0 0 0 0 0 0 0 0 0 0 0 0 0 0 0 0 0 0 0 0 0 0 0 0 0 0 0 0 0 0 0 0 0 0 0 0 0
0 0 0 0 0 0 0 0 0 0 0 0 0 0 0 0 0 0 0 0 0 0 0 0 0 0 0 0 0 0 0 0 0 0 0 0 0 0 0 0 0 0 0
0 0 0 0 0 0 0 0 0 0 0 0 0 0 0 0 0 0 0 0 0 0 0 0 0 0 0 0 0 0 0 0 0 0 0 0 0 0 0 0 0 0 0
0 0 0 0 0 0 0 0 0 0 0 0 0 0 0 0 0 0 0 0 0 0 0 0 0 0 0 0 0 0 0 0 0 0 0 0 0 0 0 0 0 0 0
0 0 0 0 0 0 0 0 0 0 0 0 0 0 0 0 0 0 0 0 0 0 0 0 0 0 0 0 0 0 0 0 0 0 0 0 0 0 0 0 0 0 0
0 0 0 0 0 0 0 0 0 0 0 0 0 0 0 0 0 0 0 0 0 0 0 0 0 0 0 0 0 0 0 0 0 0 0 0 0 0 0 0 0 0 0
0 0 0 0 0 0 0 0 0 0 0 0 0 0 0 0 0 0 0 0 0 0 0 0 0 0 0 0 0 0 0 0 0 0 0 0 0 0 0 0 0 0 0
0 0 0 0 0 0 0 0 0 0 0 0 0 0 0 0 0 0 0 0 0 0 0 0 0 0 0 0 0 0 0 0 0 0 0 0 0 0 0 0 0 0 0
0 0 0 0 0 0 0 0 0 0 0 0 0 0 0 0 0 0 0 0 0 0 0 0 0 0 0 0 0 0 0 0 0 0 0 0 0 0 0 0 0 0 0
0 0 0 0 0 0 0 0 0 0 0 0 0 0 0 0 0 0 0 0 0 0 0 0 0 0 0 0 0 0 0 0 0 0 0 0 0 0 0 0 0 0 0
0 0 0 0 0 0 0 0 0 0 0 0 0 0 0 0 0 0 0 0 0 0 0 0 0 0 0 0 0 0 0 0 0 0 0 0 0 0 0 0 0 0 0
0 0 0 0 0 0 0 0 0 0 0 0 0 0 0 0 0 0 0 0 0 0 0 0 0 0 0 0 0 0 0 0 0 0 0 0 0 0 0 0 0 0 0
0 0 0 0 0 0 0 0 0 0 0 0 0 0 0 0 0 0 0 0 0 0 0 0 0 0 0 0 0 0 0 0 0 0 0 0 0 0 0 0 0 0 0
0 0 0 0 0 0 0 0 0 0 0 0 0 0 0 0 0 0 0 0 0 0 0 0 0 0 0 0 0 0 0 0 0 0 0 0 0 0 0 0 0 0 0
0 0 0 0 0 0 0 0 0 0 0 0 0 0 0 0 0 0 0 0 0 0 0 0 0 0 0 0 0 0 0 0 0 0 0 0 0 0 0 0 0 0 0
0 0 0 0 0 0 0 0 0 0 0 0 0 0 0 0 0 0 0 0 0 0 0 0 0 0 0 0 0 0 0 0 0 0 0 0 0 0 0 0 0 0 0
0 0 0 0 0 0 0 0 0 0 0 0 0 0 0 0 0 0 0 0 0 0 0 0 0 0 0 0 0 0 0 0 0 0 0 0 0 0 0 0 0 0 0
0 0 0 0 0 0 0 0 0 0 0 0 0 0 0 0 0 0 0 0 0 0 0 0 0 0 0 0 0 0 0 0 0 0 0 0 0 0 0 0 0 0 0
-0 -0 -0 0 0 0 0 0 0 0 0 0 0 0 0 0 0 0 0 0 0 0 0 0 0 0 0 0 0 0 0 0 0 0 0 0 0 0 0 0 0 0 0
0 0 -0 -0 0 0 0 0 0 0 0 0 0 0 0 0 0 0 0 0 0 0 0 0 0 0 0 0 0 0 0 0 0 0 0 0 0 0 0 0 0 0 0
0 0 0 0 0 0 0 0 0 0 0 0 0 0 0 0 0 0 0 0 0 0 0 0 0 0 0 0 0 0 0 0 0 0 0 0 0 0 0 0 0 0 0
0 0 0 0 0 0 0 0 0 0 0 0 0 0 0 0 0 0 0 0 0 0 0 0 0 0 0 0 0 0 0 0 0 0 0 0 0 0 0 0 0 0 0
0 0 0 0 0 0 0 0 0 0 0 0 0 0 0 0 0 0 0 0 0 0 0 0 0 0 0 0 0 0 0 0 0 0 0 0 0 0 0 0 0 0 0
0 0 0 0 0 0 0 0 0 0 0 0 0 0 0 0 0 0 0 0 0 0 0 0 0 0 0 0 0 0 0 0 0 0 0 0 0 0 0 0 0 0 0
0 0 0 0 0 0 0 0 0 0 0 0 0 0 0 0 0 0 0 0 0 0 0 0 0 0 0 0 0 0 0 0 0 0 0 0 0 0 0 0 0 0 0
Wind_Speed
13 10 13 13 11 13 15 16 16 13 11 7 6 5 5 5 5 6 7 8 8 8 7 5 5 5 5 5 5 3 4 4 3 3 5 7 7 7 5 4 5 6 7
8 10 12 14 17 17 17 17 18 17 16 11 7 4 4 4 5 5 7 9 9 9 8 7 6 5 5 5 5 4 3 3 2 2 4 5 4 3 6 5 6 7 5
14 12 13 16 16 19 21 19 20 18 17 13 7 4 3 2 4 6 7 9 10 9 8 8 7 6 6 5 6 5 5 4 3 3 2 3 5 7 5 6 6 6 6
13 11 13 14 19 21 17 18 18 18 17 16 14 13 11 10 10 7 7 8 9 9 9 8 8 7 6 6 6 6 5 5 4 3 4 5 5 5 8 5 4 6 8
13 14 16 18 18 16 15 16 15 17 17 18 19 17 13 9 5 5 8 8 8 8 9 8 7 7 6 7 7 6 6 5 5 4 4 5 5 7 7 13 11 7 6
10 12 11 10 11 11 12 13 16 17 17 18 18 19 17 12 9 9 9 8 6 7 8 9 8 8 7 7 8 7 7 6 7 6 5 5 5 6 7 10 14 14 9
7 9 9 11 12 13 14 14 17 18 18 19 19 19 17 15 16 14 12 10 8 8 10 10 8 8 8 8 7 7 7 7 8 7 7 7 8 8 8 11 14 16 13
7 8 9 9 10 11 13 14 17 18 17 19 19 16 15 12 11 13 11 12 10 10 9 11 9 9 9 9 7 7 7 7 8 9 8 7 8 8 9 10 12 16 16
9 9 8 8 9 10 13 16 16 16 17 18 16 15 16 15 13 12 11 9 9 8 11 10 10 9 9 9 8 7 8 7 8 9 9 9 9 8 9 10 10 12 17
9 10 9 8 9 10 10 12 15 16 15 15 16 14 15 15 13 12 13 12 12 10 10 11 10 10 9 9 8 7 8 8 9 8 9 10 9 8 9 10 11 11 14
11 11 9 7 7 7 9 11 13 13 13 15 15 15 14 14 13 13 14 13 12 12 12 11 11 10 10 9 8 9 8 9 10 9 10 12 11 10 10 10 11 11 12
12 10 9 8 6 6 7 9 10 12 13 12 13 14 13 14 15 16 15 14 13 13 12 11 11 10 10 9 9 10 9 9 11 11 11 13 11 12 11 10 12 12 12
11 10 8 7 6 6 6 8 10 11 10 10 12 14 15 16 18 17 15 14 14 13 12 12 11 10 9 9 9 9 10 10 11 11 12 13 12 13 11 12 12 11 12
10 9 8 7 6 5 6 8 9 10 10 12 14 17 19 19 18 16 15 15 14 13 13 12 11 10 9 9 9 9 10 10 12 12 13 13 13 14 14 13 14 13 13
10 9 9 8 7 6 6 8 9 10 11 13 16 19 16 15 14 15 14 14 14 14 12 11 10 9 8 8 9 9 10 11 12 13 13 13 16 19 17 14 11 11 11
10 10 9 9 9 8 7 8 10 10 12 15 17 15 13 14 14 14 13 13 13 12 11 11 11 10 9 14 18 14 11 11 12 12 10 11 14 18 23 26 25 22 15
10 10 10 10 10 9 8 9 10 9 12 15 15 13 13 14 14 14 14 14 13 12 12 11 11 11 12 18 19 20 12 9 8 8 8 9 10 16 9 18 25 23 26
10 11 10 11 10 10 8 7 7 8 10 13 14 13 12 13 11 12 13 13 11 11 11 11 11 10 12 18 19 19 11 7 7 8 9 10 10 11 14 14 14 12 12
11 11 11 11 11 11 9 7 7 7 9 13 13 11 11 12 12 14 14 13 11 11 11 10 11 11 12 16 17 17 6 7 8 8 9 10 9 18 24 17 12 9 10
10 10 9 10 11 11 7 7 8 8 12 13 11 10 11 13 15 15 13 11 11 11 11 11 11 11 10 14 16 16 5 7 7 7 8 14 15 20 23 13 9 10 12
12 10 10 9 11 10 7 8 10 12 12 9 8 9 11 13 12 11 10 10 11 10 10 10 9 10 11 13 16 16 6 6 7 7 5 6 17 20 22 18 8 15 16
10 9 9 10 11 9 7 9 12 12 9 7 8 9 10 10 10 10 10 11 12 11 10 9 8 8 9 12 13 16 14 11 7 6 5 7 17 19 20 15 16 22 17
9 9 9 11 12 9 7 11 13 11 9 8 8 8 8 9 9 10 11 11 11 10 9 9 8 7 7 9 16 16 15 14 7 5 11 14 16 16 11 15 19 15 8
10 9 10 12 14 12 10 10 12 10 9 9 8 6 7 8 8 9 10 11 11 11 10 10 9 7 6 6 6 5 6 9 8 5 8 12 13 11 11 11 10 7 8
9 8 10 12 14 14 13 12 11 9 9 9 7 6 7 8 9 10 10 12 11 13 12 10 9 9 8 10 14 9 6 5 6 4 2 2 3 4 5 6 6 6 7
10 10 11 12 14 13 14 13 10 9 9 8 6 5 5 6 7 8 8 17 16 20 22 16 12 9 10 12 15 15 13 10 9 4 1 2 3 5 6 7 8 7 8
Wind_Direction
237 208 203 199 195 196 198 200 199 193 180 175 180 183 202 199 197 199 195 191 189 186 185 195 198 201 209 219 219 232 260 260 247 269 277 265 252 245 247 249 263 271 274
232 209 199 197 200 202 202 202 203 197 194 193 178 172 171 186 195 195 195 195 192 190 193 194 199 203 209 218 220 212 236 258 260 271 305 313 294 250 248 246 260 267 268
231 215 203 203 203 206 205 204 204 200 197 186 164 144 131 139 173 195 200 198 193 192 193 191 196 202 203 215 218 209 215 242 253 207 230 293 297 308 258 233 251 257 264
228 218 206 206 208 212 205 205 201 200 195 185 188 186 191 198 197 189 188 188 190 191 193 195 196 203 206 214 221 216 207 217 247 234 218 219 236 289 303 280 248 250 266
222 221 213 213 213 208 201 202 200 201 195 194 197 199 206 202 170 170 181 188 192 194 195 196 197 204 210 214 218 220 216 213 227 229 227 237 241 234 264 291 296 280 253
236 233 226 215 212 199 198 196 199 204 198 198 202 205 206 190 176 184 188 192 193 197 199 201 200 205 210 215 218 219 222 224 229 235 230 230 238 243 246 272 289 292 284
259 245 230 218 214 202 200 197 200 206 200 201 205 208 207 196 196 192 194 190 193 200 204 202 201 207 213 218 218 220 226 226 230 234 238 239 242 247 252 266 280 286 288
278 261 245 230 222 209 201 199 204 208 202 204 208 208 204 201 204 198 192 194 198 200 193 197 203 208 212 220 217 223 228 229 232 242 241 244 250 248 249 257 274 285 289
296 279 264 239 225 213 207 204 206 209 206 206 206 206 204 204 203 196 194 195 195 192 193 196 201 208 214 218 218 227 231 232 237 244 246 247 254 251 251 253 254 268 286
301 289 273 251 231 217 207 200 207 211 209 205 205 207 206 207 202 194 196 197 195 192 188 195 202 208 214 217 219 229 233 235 242 244 247 250 253 254 255 254 254 253 263
292 286 279 266 243 219 204 204 207 210 209 207 206 209 205 203 201 202 202 198 194 193 195 196 202 209 214 216 220 231 233 239 249 250 250 254 255 258 259 258 257 256 256
290 290 287 282 259 232 215 211 211 214 214 207 206 211 207 201 204 208 203 196 195 194 196 195 202 210 214 214 219 233 239 239 248 253 254 258 260 259 261 261 260 260 258
304 306 306 297 275 246 223 218 218 219 211 203 207 210 211 208 210 209 202 196 195 193 193 194 203 209 212 215 221 230 239 242 247 252 254 258 259 263 262 261 262 262 261
308 313 315 310 294 262 233 225 226 217 209 206 211 216 216 214 213 208 202 197 193 192 193 196 203 207 210 217 225 230 238 245 249 251 253 255 255 260 263 262 259 259 260
325 325 320 315 308 283 249 232 230 217 209 212 218 223 220 216 213 208 202 195 192 193 191 193 202 207 210 215 220 230 239 244 251 253 251 253 258 262 270 274 268 258 259
322 320 318 315 307 289 265 242 234 220 209 218 225 224 218 214 212 207 199 194 192 188 185 193 199 208 218 233 241 243 235 239 247 255 255 256 268 277 283 287 290 288 282
312 310 307 301 294 285 268 253 243 221 214 224 229 224 217 216 212 205 199 195 190 185 188 194 199 212 226 239 250 259 260 250 249 252 260 267 267 284 280 284 288 288 285
309 304 299 296 293 288 280 267 251 226 224 231 233 225 216 217 210 204 202 197 189 188 192 196 202 213 228 238 250 261 264 257 250 249 254 261 266 272 279 274 275 268 267
290 287 287 289 290 291 289 278 262 241 236 239 238 226 212 210 204 205 203 195 187 189 193 195 201 211 227 236 248 259 253 256 255 253 256 261 262 279 291 294 292 283 278
295 295 299 299 298 298 302 285 273 257 249 247 241 224 211 209 209 207 201 192 190 192 190 199 202 209 218 230 242 254 246 256 263 261 258 274 282 291 299 302 298 295 293
304 307 309 307 302 307 308 288 280 270 265 257 239 221 211 212 211 204 194 184 187 188 192 199 203 207 216 229 240 248 237 244 261 268 264 266 292 299 305 312 305 296 307
307 312 313 309 308 309 303 289 284 280 274 256 237 223 211 205 203 196 191 185 185 187 193 196 204 211 219 225 234 243 248 251 250 262 266 275 295 306 314 316 306 311 323
305 308 308 307 308 307 297 289 290 292 284 265 246 227 208 199 193 191 190 186 187 191 193 193 204 209 205 220 230 236 246 257 259 258 278 293 306 316 317 308 312 323 318
305 308 312 310 309 310 303 288 290 292 283 270 254 224 205 199 194 193 192 193 194 195 194 193 200 202 200 200 208 220 243 255 266 277 285 300 311 312 306 310 315 310 300
300 304 303 301 302 305 303 299 295 294 284 271 254 225 208 198 198 201 204 203 207 202 196 195 190 188 201 208 202 195 210 214 230 244 234 278 302 305 307 306 305 307 310
300 302 299 299 301 303 301 300 298 292 281 275 254 225 208 201 199 204 214 222 217 221 218 206 193 198 199 201 204 210 223 236 249 247 229 278 291 298 305 310 312 313 313